Tracking 18823 objects as of 23-October-2017
HD Live streaming from Space Station
objects crossing your sky now

COSMOS 2251 DEB

Track COSMOS 2251 DEB now!
10-day predictions


NORAD ID: 34447
Int'l Code: 1993-036SQ
Perigee: 625.7 km
Apogee: 654.9 km
Inclination: 74.0 °
Period: 97.4 minutes
Semi major axis: 7011 km
RCS: 0.038 m2 (small)
Launch date: June 16, 1993
Source: Commonwealth of Independent States (former USSR) (CIS)
Launch site: PLESETSK MISSILE AND SPACE COMPLEX (PKMTR)

Note: This is SATELLITE DEBRIS
aabbcc
Your satellite tracking list
Your tracking list is empty





NASA's NSSDC Master Catalog

Two Line Element Set (TLE):
1 34447U 93036SQ  17295.90969874 +.00002710 +00000-0 +37201-3 0  9995
2 34447 074.0265 105.1861 0020856 247.9079 229.7757 14.78777615460449
Source of the keplerian elements: AFSPC